Corvallis, OR

1:03 AM PDT on September 21, 2017 (GMT -0700)
Corvallis Municipal

Weather History for KCVO - December, 2012

Change the Weather History Date:

Wednesday, December 5, 2012

  Actual Average Record
Temperature  
Mean Temperature 45 °F -  
Max Temperature 51 °F 47 °F 55 °F (2003)
Min Temperature 37 °F 36 °F 15 °F (2013)
Degree Days  
Heating Degree Days 20    
Moisture  
Dew Point 41 °F    
Average Humidity 89    
Maximum Humidity 100    
Minimum Humidity 71    
Precipitation  
Precipitation 0.02 in - - ()
Sea Level Pressure  
Sea Level Pressure 30.20 in    
Wind  
Wind Speed 3 mph (WSW)    
Max Wind Speed 8 mph    
Max Gust Speed -    
Visibility 9 miles    
Events      
Averages and records for this station are not official NWS values.
T = Trace of Precipitation, MM = Missing Value Source: NWS Daily Summary

Daily Weather History Graph

Daily Weather History Graph

Search for Another Location

Airport or City:

Trip Planner

Search our weather history database for the weather conditions in past years. The results will help you decide how hot, cold, wet, or windy it might be!

Date:

Astronomy

Dec. 05, 2012 Rise Set
Actual Time 7:34 AM PST 4:33 PM PST
Civil Twilight 7:01 AM PST 5:06 PM PST
Nautical Twilight 6:24 AM PST 5:43 PM PST
Astronomical Twilight 5:49 AM PST 6:18 PM PST
Moon 11:41 PM PST (12/5) 11:49 AM PST (12/5)
Length of Visible Light 10h 05m
Length of Day
8h 59m
Waning Gibbous, 58% of the Moon is Illuminated
Dec 5
Waning Gibbous
Dec 6
Last Quarter
Dec 13
New
Dec 19
First Quarter
Dec 28
Full

Hourly Weather History & Observations

Time (PST) Temp. Windchill Dew Point Humidity Pressure Visibility Wind Dir Wind Speed Gust Speed Precip Events Conditions
12:15 AM 48.2 °F - 44.6 °F 87% 30.02 in 8.0 mi NW 5.8 mph - N/A   Overcast
12:35 AM 48.2 °F - 44.6 °F 87% 30.04 in 10.0 mi WNW 3.5 mph - N/A   Overcast
12:55 AM 48.2 °F - 44.6 °F 87% 30.04 in 10.0 mi SW 4.6 mph - N/A   Overcast
1:15 AM 48.2 °F - 44.6 °F 87% 30.06 in 10.0 mi NNW 3.5 mph - N/A   Mostly Cloudy
1:35 AM 48.2 °F - 44.6 °F 87% 30.07 in 9.0 mi Calm Calm - N/A   Overcast
1:55 AM 46.4 °F - 42.8 °F 87% 30.08 in 10.0 mi Calm Calm - N/A   Mostly Cloudy
2:15 AM 46.4 °F 45.2 °F 42.8 °F 87% 30.09 in 10.0 mi South 3.5 mph - N/A   Scattered Clouds
2:35 AM 44.6 °F - 42.8 °F 93% 30.11 in 10.0 mi Calm Calm - N/A   Mostly Cloudy
2:55 AM 44.6 °F 42.2 °F 42.8 °F 93% 30.11 in 10.0 mi SSE 4.6 mph - N/A   Overcast
3:15 AM 44.6 °F - 44.6 °F 100% 30.12 in 10.0 mi Calm Calm - N/A   Overcast
3:35 AM 44.6 °F 42.2 °F 42.8 °F 93% 30.12 in 10.0 mi SSW 4.6 mph - N/A   Mostly Cloudy
3:55 AM 44.6 °F 40.7 °F 42.8 °F 93% 30.13 in 10.0 mi SSW 6.9 mph - N/A   Partly Cloudy
4:15 AM 44.6 °F 42.2 °F 42.8 °F 93% 30.14 in 10.0 mi WSW 4.6 mph - N/A   Mostly Cloudy
4:35 AM 44.6 °F 43.1 °F 42.8 °F 93% 30.14 in 10.0 mi NNW 3.5 mph - 0.01 in   Overcast
4:55 AM 44.6 °F - 42.8 °F 93% 30.14 in 9.0 mi Calm Calm - 0.01 in   Overcast
6:35 AM 42.8 °F 41.1 °F 39.2 °F 87% 30.17 in 10.0 mi SE 3.5 mph - N/A   Partly Cloudy
6:55 AM 41.0 °F - 41.0 °F 100% 30.18 in 10.0 mi Calm Calm - N/A   Clear
7:15 AM 39.2 °F - 37.4 °F 93% 30.18 in 9.0 mi Calm Calm - N/A   Clear
7:35 AM 39.2 °F 37.0 °F 39.2 °F 100% 30.19 in 0.8 mi WSW 3.5 mph - N/A   Unknown
7:55 AM 39.2 °F - 37.4 °F 93% 30.19 in 0.5 mi Calm Calm - N/A   Mostly Cloudy
8:15 AM 39.2 °F - 39.2 °F 100% 30.20 in 0.2 mi Calm Calm - N/A   Overcast
8:35 AM 39.2 °F 37.0 °F 39.2 °F 100% 30.21 in 2.5 mi West 3.5 mph - N/A   Mostly Cloudy
8:55 AM 41.0 °F - 39.2 °F 93% 30.21 in 10.0 mi Calm Calm - N/A   Partly Cloudy
9:15 AM 41.0 °F - 39.2 °F 93% 30.22 in 10.0 mi Calm Calm - N/A   Mostly Cloudy
9:35 AM 42.8 °F - 41.0 °F 93% 30.23 in 10.0 mi Calm Calm - N/A   Overcast
9:55 AM 42.8 °F - 41.0 °F 93% 30.23 in 10.0 mi Calm Calm - N/A   Overcast
10:15 AM 42.8 °F - 42.8 °F 100% 30.24 in 10.0 mi Calm Calm - N/A   Overcast
10:35 AM 44.6 °F - 42.8 °F 93% 30.24 in 10.0 mi Calm Calm - N/A   Overcast
10:55 AM 44.6 °F - 42.8 °F 93% 30.24 in 10.0 mi Calm Calm - N/A   Overcast
11:15 AM 44.6 °F - 42.8 °F 93% 30.24 in 10.0 mi Calm Calm - N/A   Overcast
11:35 AM 46.4 °F - 42.8 °F 87% 30.24 in 5.0 mi Calm Calm - N/A   Overcast
11:55 AM 48.2 °F - 44.6 °F 87% 30.25 in 10.0 mi SSE 3.5 mph - N/A   Overcast
12:15 PM 51.8 °F - 42.8 °F 71% 30.24 in 10.0 mi SSE 3.5 mph - N/A   Overcast
12:35 PM 51.8 °F - 44.6 °F 76% 30.24 in 10.0 mi ESE 4.6 mph - N/A   Overcast
12:55 PM 51.8 °F - 42.8 °F 71% 30.24 in 10.0 mi Calm Calm - N/A   Overcast
1:15 PM 51.8 °F - 42.8 °F 71% 30.24 in 10.0 mi Calm Calm - N/A   Overcast
1:35 PM 50.0 °F - 42.8 °F 76% 30.23 in 10.0 mi West 3.5 mph - N/A   Overcast
1:55 PM 48.2 °F - 44.6 °F 87% 30.23 in 10.0 mi West 8.1 mph - N/A   Overcast
2:15 PM 48.2 °F - 39.2 °F 71% 30.22 in 10.0 mi Calm Calm - 0.01 in   Overcast
2:35 PM 46.4 °F - 42.8 °F 87% 30.22 in 10.0 mi Calm Calm - 0.01 in   Overcast
2:55 PM 48.2 °F - 42.8 °F 82% 30.22 in 10.0 mi Calm Calm - 0.01 in   Overcast
3:15 PM 48.2 °F - 41.0 °F 76% 30.22 in 10.0 mi Calm Calm - N/A   Overcast
3:35 PM 48.2 °F - 39.2 °F 71% 30.23 in 10.0 mi Calm Calm - N/A   Overcast
3:55 PM 46.4 °F 44.3 °F 42.8 °F 87% 30.23 in 10.0 mi West 4.6 mph - N/A   Overcast
4:15 PM 46.4 °F 45.2 °F 42.8 °F 87% 30.23 in 10.0 mi WNW 3.5 mph - N/A   Overcast
4:35 PM 46.4 °F 43.5 °F 42.8 °F 87% 30.23 in 10.0 mi WNW 5.8 mph - N/A   Mostly Cloudy
4:55 PM 44.6 °F 42.2 °F 42.8 °F 93% 30.23 in 10.0 mi WNW 4.6 mph - N/A   Mostly Cloudy
5:15 PM 44.6 °F 43.1 °F 41.0 °F 87% 30.24 in 10.0 mi West 3.5 mph - N/A   Scattered Clouds
5:35 PM 44.6 °F - 41.0 °F 87% 30.24 in 10.0 mi Calm Calm - N/A   Scattered Clouds
5:55 PM 42.8 °F 40.1 °F 39.2 °F 87% 30.23 in 10.0 mi WSW 4.6 mph - N/A   Mostly Cloudy
6:15 PM 42.8 °F 40.1 °F 39.2 °F 87% 30.24 in 10.0 mi SSW 4.6 mph - N/A   Overcast
6:35 PM 42.8 °F 39.3 °F 41.0 °F 93% 30.24 in 10.0 mi West 5.8 mph - N/A   Overcast
6:55 PM 42.8 °F - 42.8 °F 100% 30.24 in 10.0 mi Calm Calm - N/A   Overcast
7:15 PM 42.8 °F - 41.0 °F 93% 30.25 in 10.0 mi Calm Calm - N/A   Overcast
7:35 PM 42.8 °F 41.1 °F 41.0 °F 93% 30.25 in 10.0 mi West 3.5 mph - N/A   Overcast
7:55 PM 42.8 °F 40.1 °F 41.0 °F 93% 30.25 in 10.0 mi WNW 4.6 mph - N/A   Overcast
8:15 PM 42.8 °F 40.1 °F 39.2 °F 87% 30.25 in 10.0 mi WNW 4.6 mph - N/A   Overcast
8:35 PM 42.8 °F 41.1 °F 39.2 °F 87% 30.25 in 10.0 mi WNW 3.5 mph - N/A   Overcast
8:55 PM 42.8 °F 41.1 °F 39.2 °F 87% 30.25 in 10.0 mi West 3.5 mph - N/A   Overcast
9:15 PM 41.0 °F 38.0 °F 37.4 °F 87% 30.26 in 10.0 mi WNW 4.6 mph - N/A   Scattered Clouds
9:35 PM 39.2 °F 37.0 °F 37.4 °F 93% 30.26 in 10.0 mi South 3.5 mph - N/A   Partly Cloudy
9:55 PM 39.2 °F - 37.4 °F 93% 30.26 in 10.0 mi Calm Calm - N/A   Clear
10:15 PM 39.2 °F 37.0 °F 37.4 °F 93% 30.26 in 10.0 mi West 3.5 mph - N/A   Clear
10:35 PM 39.2 °F 37.0 °F 37.4 °F 93% 30.26 in 10.0 mi West 3.5 mph - N/A   Clear
10:55 PM 39.2 °F - 37.4 °F 93% 30.26 in 10.0 mi Calm Calm - N/A   Partly Cloudy
11:15 PM 39.2 °F 35.9 °F 37.4 °F 93% 30.26 in 10.0 mi West 4.6 mph - N/A   Mostly Cloudy
11:35 PM 39.2 °F 35.9 °F 37.4 °F 93% 30.26 in 10.0 mi West 4.6 mph - N/A   Mostly Cloudy
11:55 PM 37.4 °F - 35.6 °F 93% 30.26 in 10.0 mi Calm Calm - N/A   Partly Cloudy